Other Public Products
Issued by NWS Grand Forks, ND

Current Version | Previous Version | Text Only | Print | Product List | Glossary On
Versions: 1 2 3 4 5 6 7 8 9 10 11 12 13 14 15 16 17 18 19 20 21 22 23 24 25 26 27 28 29 30 31 32 33 34 35 36 37 38 39 40 41 42 43 44 45 46 47 48 49 50
000
FPUS83 KFGF 040631
OPUFGF
PRAIRIE TO PINES WEATHER ROUNDUP
NATIONAL WEATHER SERVICE EASTERN NORTH DAKOTA/GRAND FORKS ND
100 AM CDT WED MAY 04 2016

 **SATELLITE DATA USED TO AUGMENT SKY COVER AT AUTOMATED STATIONS**
 *****  WEATHER ACROSS EASTERN NORTH DAKOTA  *****

CITY           SKY/WX    TMP DP  RH WIND       PRES   REMARKS
GRAND FORKS    CLEAR     38  30  73 NW9       30.02R
6HR MIN TEMP:  38; 6HR MAX TEMP:  64;

GRAND FORKS AF CLEAR     45  32  60 N8        30.03R
GRAND CITY NWS NOT AVBL
BUXTON           N/A     42  32  69 NW7         N/A
DEVILS LAKE    PTCLDY    45  33  63 N8        30.06R
6HR MIN TEMP:  44; 6HR MAX TEMP:  64;

FARGO          CLEAR     50  29  44 N13       29.99R
6HR MIN TEMP:  50; 6HR MAX TEMP:  66;

WAHPETON ARPT  CLEAR     50  28  43 N12       29.99R
$$

 *****  WEATHER ACROSS CENTRAL AND WESTERN NORTH DAKOTA  *****

CITY           SKY/WX    TMP DP  RH WIND       PRES   REMARKS
JAMESTOWN      CLEAR     42  31  64 N8        30.04R
6HR MIN TEMP:  42; 6HR MAX TEMP:  66;

BISMARCK       CLEAR     46  32  58 E3        30.08R
6HR MIN TEMP:  45; 6HR MAX TEMP:  73;

MINOT          CLEAR     52  28  39 SE5       30.06S
6HR MIN TEMP:  51; 6HR MAX TEMP:  76;

MINOT AFB      CLEAR     46  28  49 S7        30.05S
6HR MIN TEMP:  43; 6HR MAX TEMP:  71;

GARRISON         N/A     49  30  48 CALM      30.07R
6HR MIN TEMP:  47; 6HR MAX TEMP:  74;

WILLISTON      CLEAR     47  40  76 CALM      30.06R
6HR MIN TEMP:  47; 6HR MAX TEMP:  79;

DICKINSON      CLEAR     47  36  65 S6        30.07S
6HR MIN TEMP:  46; 6HR MAX TEMP:  74;

HETTINGER      CLEAR     45  36  70 NW3       30.10S
6HR MIN TEMP:  42; 6HR MAX TEMP:  75;

$$

 *****  OTHER OBSERVATIONS NORTHEAST NORTH DAKOTA  *****

CITY           SKY/WX    TMP DP  RH WIND       PRES   REMARKS
WALHALLA       FAIR      39  32  75 NW5       30.06S
LANGDON        FAIR      37  28  70 N7        30.06R
CAVALIER       FAIR      45  32  61 N8        30.05R
GRAFTON        FAIR      43  32  65 N7        30.05S
CANDO          FAIR      36  30  80 NW6       30.09S
FORT TOTTEN    NOT AVBL
ROLLA          FAIR      37  27  65 N5        30.08S
RUGBY          FAIR      41  32  70 E5        30.07S
 ***** THE ABOVE OBSERVATIONS ARE NON NWS ARE NOT QUALITY
        CONTROLLED AND MAY MIS-REPORT RAIN FOR SNOW...
$$

 *****  OTHER OBSERVATIONS SOUTHEAST NORTH DAKOTA *****

CITY           SKY/WX    TMP DP  RH WIND       PRES   REMARKS
COOPERSTOWN    NOT AVBL
VALLEY CITY    FAIR      45  32  61 N9        30.05R
OAKES            N/A    N/A N/A N/A MISG        N/A
GWINNER        FAIR      46  34  61 N10       30.02R
SHEYENNE NWR     N/A     49  28  44 N6        29.95
BUFFALO          N/A     41  27  56 N6          N/A
WYNDMERE         N/A     46  28  49 N7          N/A
 ***** THE ABOVE OBSERVATIONS ARE NON NWS ARE NOT QUALITY
       CONTROLLED AND MAY MIS-REPORT RAIN FOR SNOW...
$$

  *****  WEATHER ACROSS NORTHERN MINNESOTA  *****

CITY           SKY/WX    TMP DP  RH WIND       PRES   REMARKS
FLAG ISLAND    CLEAR     46  36  66 N10       29.98S
WARROAD        CLEAR     43  37  81 N7        30.00S
ROSEAU         CLEAR     43  36  75 N7        30.00R
HALLOCK        CLEAR     41  30  65 NW7       30.03R
THF RVR FALLS  CLEAR     45  34  65 N8        30.01S
6HR MIN TEMP:  45; 6HR MAX TEMP:  61;

HALSTAD        NOT AVBL
FOSSTON        CLEAR     39  34  81 N6        29.99R
BAUDETTE       PTCLDY    44  33  65 N7        29.97R
6HR MIN TEMP:  44; 6HR MAX TEMP:  58;

WASKISH        CLEAR     43  34  70 CALM      29.96S
CROOKSTON      CLEAR     43  34  70 N6        30.02R
$$
  *****  WEATHER ACROSS CENTRAL AND WEST MINNESOTA  *****

CITY           SKY/WX    TMP DP  RH WIND       PRES   REMARKS
BEMIDJI        CLEAR     43  32  63 NW3       29.96R
PARK RAPIDS    CLEAR     50  33  52 N7        29.94R
6HR MIN TEMP:  50; 6HR MAX TEMP:  63;

WADENA         CLEAR     43  32  65 N3        29.95R
DETROIT LAKES  PTCLDY    46  36  66 N9        29.99R
MOORHEAD       CLEAR     46  28  49 N10       30.00R
FERGUS FALLS   CLEAR     50  34  53 N9        29.95R
ELBOW LAKE     FAIR      49  35  58 N7        29.96S
6HR MIN TEMP:  48; 6HR MAX TEMP:  64;

MORRIS MN      CLEAR     48  30  49 N12       29.95R
STAPLES        CLEAR     48  32  53 N6        29.94R
WHEATON        CLEAR     48  34  57 NW8       29.99R
$$
  *****  WEATHER ELSEWHERE ACROSS MINNESOTA  *****

CITY           SKY/WX    TMP DP  RH WIND       PRES   REMARKS
DULUTH         CLEAR     46  32  58 N9        29.89R
6HR MIN TEMP:  46; 6HR MAX TEMP:  62;

INTRNTL FALLS  CLEAR     34  29  82 NW6       29.94R
6HR MIN TEMP:  32; 6HR MAX TEMP:  57;

ELY            CLEAR     43  30  61 NW7       29.89S
CLOQUET        CLEAR     45  30  57 N9        29.90R
BRAINERD       CLEAR     50  32  50 NE8       29.93R
6HR MIN TEMP:  49; 6HR MAX TEMP:  65;

HIBBING        CLEAR     35  29  78 NW5       29.91R
6HR MIN TEMP:  35; 6HR MAX TEMP:  57;

ALEXANDRIA     CLEAR     51  32  48 N12       29.94R
6HR MIN TEMP:  51; 6HR MAX TEMP:  64;

SAINT CLOUD    CLEAR     49  33  54 N7        29.89R
6HR MIN TEMP:  49; 6HR MAX TEMP:  67;

MINNEAPOLIS    CLEAR     56  31  38 N13       29.84R
6HR MIN TEMP:  56; 6HR MAX TEMP:  72;

$$

  *****  WEATHER ACROSS SOUTH DAKOTA  *****

CITY           SKY/WX    TMP DP  RH WIND       PRES   REMARKS
SIOUX FALLS    CLEAR     48  33  56 N10       29.94R
6HR MIN TEMP:  48; 6HR MAX TEMP:  71;

BROOKINGS      CLEAR     44  32  62 N8        29.94R
WATERTOWN      PTCLDY    44  31  60 N10       29.97R
6HR MIN TEMP:  44; 6HR MAX TEMP:  67;

HURON          CLEAR     46  32  58 N9        30.00R
6HR MIN TEMP:  46; 6HR MAX TEMP:  72;

SISSETON         N/A     47  32  56 N13       29.97R
ABERDEEN       CLEAR     45  31  58 N10       30.02R
6HR MIN TEMP:  44; 6HR MAX TEMP:  70;

MITCHELL       CLEAR     51  37  58 N9        29.99R
PIERRE         CLEAR     46  37  71 NE8       30.03R
6HR MIN TEMP:  46; 6HR MAX TEMP:  75;

MOBRIDGE       CLEAR     51  31  46 NE10      30.03R
RAPID CITY     CLEAR     50  38  63 NW8       30.11S
6HR MIN TEMP:  50; 6HR MAX TEMP:  72;

$$

  *****  SOME WEATHER IN NEARBY STATES *****

CITY           SKY/WX    TMP DP  RH WIND       PRES   REMARKS
GLASGOW MT     CLEAR     58  38  47 SE7       30.03S
6HR MIN TEMP:  57; 6HR MAX TEMP:  79;

GREAT FALLS MT CLEAR     58  39  49 S6        30.02S
6HR MIN TEMP:  54; 6HR MAX TEMP:  78;

CHEYENNE WY    CLEAR     43  34  70 W12       30.27S
6HR MIN TEMP:  42; 6HR MAX TEMP:  62;

SCOTTSBLUFF NE CLEAR     49  40  71 N5        30.18R
6HR MIN TEMP:  47; 6HR MAX TEMP:  73;

OMAHA NE       PTCLDY    60  45  57 NW16      29.86R
6HR MIN TEMP:  59; 6HR MAX TEMP:  71;

DES MOINES IA  MOCLDY    62  43  49 NW14      29.76S
6HR MIN TEMP:  58; 6HR MAX TEMP:  68; 6HR PCP: TRACE;

DAVENPORT IA   RAIN      50  47  89 SE7       29.70F
6HR MIN TEMP:  50; 6HR MAX TEMP:  64; 6HR PCP:  0.03;

CHICAGO IL     HVY RAIN  54  46  74 NW24G32   29.65R
6HR MIN TEMP:  57; 6HR MAX TEMP:  63; 6HR PCP: TRACE;

EAU CLAIRE WI  PTCLDY    50  37  61 N10       29.79R
6HR MIN TEMP:  46; 6HR MAX TEMP:  57;

LA CROSSE WI   PTCLDY    48  45  89 N7        29.74R
6HR MIN TEMP:  48; 6HR MAX TEMP:  69; 6HR PCP:  0.19;

$$

  *****  SOME NATIONAL WEATHER *****

CITY           SKY/WX    TMP DP  RH WIND       PRES   REMARKS
LA GUARDIA NY  CLOUDY    52  50  93 E7        29.81R               C1F1C2F2C3F3C4F4C5F5C6F6C7F7C8F8C9F9CaFaCbFbCcFcCdFdCe!



USA.gov is the U.S. government's official web portal to all federal, state and local government web resources and services.